星链-6295 (STARLINK-6295 )

导读

STARLINK-6295是美国SpaceX公司星链计划中的一颗第二代迷你卫星,于2023年5月14日由猎鹰9号火箭从美国发射升空,进入近地预定轨道。作为星链星座的组成部分,它旨在为全球提供高速互联网接入服务,尤其服务偏远地区与灾害应急通信,是SpaceX构建全球卫星互联网组网过程中发射的卫星之一。

Basic Information
目录编号:
56554
目录名称:
STARLINK-6295
国际标识:
2023-065BD
轨道中心:
EARTH
卫星名称:
星链-6295
卫星全名:
星链-6295 (STARLINK-6295 )
卫星状态:
在轨 (已飞行1127 天)
发射日期:
2023-05-14 UTC
国别 :
美国 (US)
星等 :
--
Orbit Information
数据来源 国际轨道数据 AOE轨道数据
星历时间 2026-06-14T16:34:55+0800
13小时前
查看轨道信息
2026-06-14T18:00:00+0800
12小时前
查看轨道信息
半长轴 6861.198km 6861.184km
偏心率 0.0001394 0.0000726
轨道倾角 43.014° 43.008°
近地点辐角 266.297° 248.047°
升交点赤经 37.875° 37.546°
平近点角 93.772° 77.358°
近地点 482.104km 482.548km
远地点 484.018km 483.546km
周期 94.267分钟 94.267分钟
每日圈数 15.275763 15.27581
Detailed Information
固有亮度:
5
最大亮度:
2.5
卫星平台:
Starlink v1.5
覆盖范围:
全球
运营商:
太空探索技术公司
运营商所在国:
美国
制造商(研发单位):
太空探索技术公司
制造商所在国:
美国
使用方式:
暂无
Satellite Introduction
星链(Starlink)计划是由太空探索技术公司(SpaceX)提出的一个巨型低轨卫星互联网星座项目,计划在2019年至2024年间在太空搭建由约1.2万颗卫星组成的“星链”网络,其中1584颗将部署在地球上空550千米处的近地轨道,并从2020年开始工作。该卫星仍在工作。
2D Orbit Map
3D Orbit Map
Orbit Altitude Analysis Chart
Orbit Inclination Analysis Chart
Orbit Comprehensive Analysis Chart
View Comprehensive Chart